Wind_Speed
22 24 26 27 30 32 35 40 42 46 47 41 34 34 34 33 36 34 30 29 27 26 27 28 27 18 20 22 21 24 24 24 23 23 24 26 27 29 31 34 36 39 41 42 45 47 49
25 24 26 32 34 35 36 35 39 43 46 46 41 38 36 35 37 35 32 28 27 25 28 28 25 25 24 26 23 20 21 24 25 26 28 29 29 30 32 35 40 44 48 50 50 51 54
28 26 31 35 37 36 38 37 38 40 44 45 45 41 41 37 36 37 33 31 29 29 27 25 22 20 21 21 21 23 25 27 29 28 30 32 34 34 38 41 44 48 51 53 55 57 58
33 29 33 40 41 36 37 38 39 38 42 46 47 42 41 39 35 34 31 30 32 29 26 25 23 24 24 22 24 27 30 32 30 30 31 32 34 39 43 46 48 52 54 57 57 59 63
38 35 35 44 38 35 36 40 42 42 44 46 42 48 44 42 35 30 28 31 32 26 25 27 24 28 29 28 28 30 33 34 34 34 36 38 40 42 46 50 52 54 56 59 62 66 69
42 41 43 44 40 40 39 42 44 43 48 46 46 45 49 44 36 29 26 29 33 31 26 30 33 35 36 34 33 36 36 36 37 39 40 41 42 44 48 51 54 57 61 63 67 72 74
37 39 41 44 43 46 43 46 50 47 49 50 50 42 49 44 35 30 25 28 33 34 30 30 33 35 34 33 33 34 38 39 39 40 41 43 45 48 52 55 58 61 65 69 72 75 77
40 40 42 43 46 49 48 50 48 49 49 50 55 47 46 44 39 32 29 30 32 32 34 34 32 34 32 33 37 41 41 41 44 47 47 46 47 50 54 58 62 66 69 73 78 82 85
48 46 46 48 50 52 52 49 56 56 51 54 57 52 47 49 41 37 34 34 36 34 35 34 34 37 39 42 42 43 47 48 45 45 46 49 51 54 59 63 69 72 71 76 77 85 92
58 56 52 52 51 52 53 57 58 56 52 52 55 53 49 45 46 40 39 34 35 33 33 33 35 39 41 44 44 46 49 48 47 48 50 52 56 61 65 67 68 74 80 81 86 90 92
58 58 57 53 52 53 59 59 54 52 54 50 52 53 51 45 50 42 43 41 37 37 34 38 40 42 45 46 43 47 50 51 50 51 55 56 61 64 69 72 74 79 82 83 86 90 95
57 60 58 54 56 60 58 57 54 55 53 53 53 57 52 49 49 47 46 45 44 41 39 40 42 44 47 48 50 52 54 55 57 59 62 65 66 69 73 77 81 84 85 87 91 96 104
58 60 58 58 60 58 60 60 58 54 53 54 59 56 50 51 55 48 48 47 45 45 43 43 46 47 51 53 55 56 57 59 63 66 68 69 71 75 78 84 87 88 90 95 98 105 105
61 58 59 57 61 61 62 60 60 56 56 59 55 55 49 50 51 46 50 47 46 45 44 48 51 51 52 52 55 59 62 64 67 71 75 77 79 81 83 88 89 90 95 101 108 106 109
59 59 62 60 61 62 62 60 58 57 55 60 61 58 54 51 48 47 49 48 46 48 49 50 53 52 55 56 59 61 65 69 71 75 79 82 83 85 90 90 91 96 103 109 112 110 116
62 64 64 62 63 63 61 60 57 57 58 62 65 57 53 52 52 51 52 50 47 52 52 51 54 53 55 60 62 65 67 70 74 78 78 81 87 90 92 92 96 104 108 117 117 122 126
64 67 65 66 66 63 60 61 60 61 58 62 66 61 55 55 50 53 56 51 53 55 56 55 58 59 61 62 62 67 71 74 77 78 78 83 89 91 92 96 103 109 116 119 122 128 126
68 68 63 66 67 68 65 65 62 63 64 68 70 62 58 55 48 52 56 55 57 58 60 58 58 61 62 65 67 73 76 79 81 79 84 88 91 92 96 102 108 115 119 123 125 124 128
63 68 68 64 65 63 66 65 64 71 69 71 70 62 59 57 52 57 57 58 58 59 60 61 63 64 66 69 73 77 79 80 82 85 87 90 92 93 98 106 112 117 123 124 127 132 126
68 71 70 67 66 67 67 72 72 71 73 81 74 67 63 56 56 60 63 62 61 59 62 64 66 69 71 72 76 79 81 82 87 89 90 94 95 98 104 110 115 122 125 129 133 133 116
77 76 74 71 74 73 70 71 74 73 80 81 79 70 61 57 59 64 63 60 61 62 64 70 69 74 71 73 78 83 84 85 90 92 96 97 99 103 109 115 120 126 127 130 138 129 108
80 79 77 76 79 74 72 72 76 81 86 82 80 68 64 58 62 63 62 60 62 63 69 70 72 70 73 78 82 83 83 88 91 96 100 99 103 107 113 118 123 129 131 135 142 122 103
89 86 84 80 82 78 80 81 81 89 87 89 75 67 65 61 61 61 61 62 64 68 71 69 71 73 77 83 86 85 86 91 96 101 100 103 107 111 115 121 126 128 134 141 137 113 100
93 94 91 87 87 87 85 87 94 92 90 85 74 64 62 58 58 62 63 65 65 68 67 69 73 78 82 88 85 86 91 94 99 101 104 107 111 115 119 124 129 134 136 145 126 107 101
98 99 99 96 94 90 92 95 99 91 92 82 70 63 57 54 59 62 65 63 64 66 70 74 78 83 87 87 90 92 94 98 101 103 108 112 115 119 123 128 133 139 140 141 116 107 102
104 106 109 104 99 100 106 104 106 84 82 68 59 56 52 57 58 60 62 64 66 72 75 77 82 86 89 90 92 95 99 104 102 106 112 116 120 122 129 136 139 139 146 131 110 106 105
110 113 109 107 106 104 100 87 78 83 68 49 46 48 54 58 60 63 64 66 71 72 74 80 85 89 91 92 96 98 103 104 106 111 116 120 124 129 136 137 141 143 143 121 111 108 102
109 101 102 100 90 86 69 67 62 59 48 49 49 53 55 58 60 63 65 69 72 73 78 83 87 90 94 95 99 104 103 105 110 115 120 123 128 132 136 142 141 147 132 118 113 108 100
84 81 78 68 67 63 59 53 53 52 54 48 50 53 55 57 59 64 68 69 71 75 80 85 89 93 96 99 104 104 105 110 116 119 123 127 131 136 141 143 149 141 123 119 114 104 98
Wind_Direction
320 328 332 342 341 339 340 338 341 345 346 347 337 326 321 318 319 317 307 307 304 302 307 310 305 298 294 293 289 290 289 292 293 288 284 281 277 276 273 270 269 270 274 277 276 276 274
303 314 332 334 334 339 337 343 343 342 344 343 339 328 322 314 316 317 311 308 307 306 314 312 298 294 292 292 294 289 289 292 291 291 288 281 274 272 272 272 270 270 271 272 273 272 275
316 306 322 329 330 336 336 344 346 348 342 339 343 328 322 317 311 312 311 308 306 307 310 313 298 296 299 295 290 290 287 295 290 291 290 282 275 270 273 272 271 273 276 280 283 282 281
309 309 314 324 327 329 334 340 342 340 348 345 347 339 326 316 313 308 308 307 305 303 303 306 293 293 297 296 294 296 295 297 293 290 286 284 279 276 277 278 278 279 281 280 280 281 283
301 306 304 316 322 325 332 333 336 344 344 344 336 347 333 323 315 306 306 306 310 306 297 300 298 295 295 295 298 302 302 301 296 294 294 291 285 280 279 282 284 285 284 282 284 286 286
298 298 300 310 317 321 326 335 334 334 340 340 342 342 342 328 316 306 299 305 299 298 295 296 298 296 294 302 301 302 299 299 296 296 291 289 289 289 289 288 287 287 287 288 289 288 288
294 298 301 302 310 317 315 323 329 331 334 338 340 337 344 332 318 305 300 303 303 298 300 299 301 301 300 300 300 301 303 301 297 295 293 291 292 292 290 290 290 290 290 291 291 290 290
294 296 299 303 305 309 310 316 322 327 329 333 336 339 337 336 324 307 298 296 300 300 304 303 304 302 301 300 302 303 303 299 296 295 295 294 293 291 291 291 293 294 294 293 294 294 293
295 294 297 301 306 305 306 310 315 317 321 327 332 335 334 337 324 314 301 294 291 294 299 297 296 295 298 297 299 301 306 308 304 301 299 297 295 295 296 296 297 296 295 295 294 296 294
296 294 295 294 305 305 307 309 312 312 315 325 329 333 333 325 331 317 308 298 294 296 297 294 292 293 298 301 305 306 309 308 305 303 301 299 298 299 299 300 298 298 297 296 296 298 299
290 291 294 294 299 301 304 308 309 308 313 325 327 332 327 318 324 324 310 300 296 296 298 295 292 291 296 300 302 304 306 306 304 303 304 304 304 302 300 301 299 300 299 297 299 304 308
286 288 287 292 297 301 301 306 307 310 311 318 324 327 326 310 318 316 315 301 292 295 298 295 293 294 296 298 300 301 305 303 302 303 304 305 305 303 303 304 304 303 303 304 306 307 311
283 283 285 293 297 298 299 301 302 306 310 318 320 323 320 310 306 313 319 310 298 294 295 295 293 295 296 297 299 303 304 304 304 303 304 304 307 307 307 308 307 307 307 310 311 312 313
276 281 287 291 298 296 296 298 300 302 308 317 318 320 315 315 307 305 312 311 299 297 299 295 295 300 299 298 300 303 305 306 305 305 307 308 309 309 309 310 309 311 313 314 316 315 314
278 283 286 291 292 294 296 298 299 302 307 311 316 316 309 305 307 303 308 312 303 305 304 303 301 300 300 302 302 303 304 305 306 305 306 307 308 309 311 311 312 314 316 318 319 317 315
275 284 288 288 289 290 292 294 299 301 304 309 313 314 310 305 302 300 304 308 303 303 304 305 305 304 304 305 305 304 306 306 307 307 307 308 311 311 312 313 314 316 319 321 320 319 318
281 284 288 288 284 286 291 296 296 303 303 308 311 315 306 302 298 297 298 302 299 302 303 305 308 308 307 309 309 309 309 308 308 308 309 310 311 314 315 316 317 319 321 321 322 321 321
278 282 285 284 286 283 289 292 297 299 301 305 310 308 301 300 300 295 300 297 301 300 302 304 307 309 311 309 310 309 309 308 309 309 311 311 315 316 318 318 320 321 322 322 322 325 326
277 281 285 283 284 285 286 288 296 298 299 309 309 305 295 297 292 293 290 295 298 298 300 302 306 308 311 309 309 309 310 310 311 313 313 316 317 317 318 320 321 322 322 323 326 329 328
275 280 282 284 282 282 287 289 293 295 297 308 307 302 294 294 288 288 290 292 295 297 299 302 304 307 309 309 308 309 309 312 314 315 315 318 318 319 321 322 323 323 324 326 328 330 328
275 282 283 281 283 285 285 286 293 292 301 303 305 298 291 287 280 286 287 291 294 297 299 302 303 308 309 308 309 308 309 315 316 316 316 317 319 321 321 322 322 323 324 328 330 329 327
271 278 282 280 283 281 285 287 290 292 300 301 302 289 281 277 280 283 284 289 290 294 299 303 307 307 308 310 309 308 312 317 317 317 318 318 320 321 321 322 323 324 326 329 331 328 327
268 273 280 283 280 279 284 285 288 294 296 297 293 280 276 277 275 278 280 283 288 294 300 303 305 307 309 310 309 311 315 316 318 317 318 319 320 321 321 322 324 326 328 331 330 327 327
269 274 279 281 281 281 285 283 288 291 294 295 287 277 274 270 272 274 279 281 288 296 298 303 305 305 308 310 311 314 315 316 316 317 318 319 320 321 322 322 325 327 330 330 328 327 327
270 272 277 277 278 278 282 283 287 289 290 286 271 269 265 271 273 273 276 286 293 292 299 302 302 303 307 309 313 317 316 316 316 317 318 319 320 321 321 323 325 327 329 328 327 326 327
268 273 275 275 276 277 282 284 284 283 282 274 270 263 265 267 270 275 284 286 288 291 298 300 301 305 308 309 315 316 316 315 316 318 318 319 319 321 321 323 325 327 328 326 326 326 326
271 273 275 275 275 279 280 280 275 279 270 261 257 259 262 266 271 277 280 284 288 295 297 299 302 305 307 310 315 315 315 315 317 318 318 318 320 320 321 323 325 325 326 325 325 325 325
270 273 278 275 276 275 266 266 266 263 252 249 252 258 263 269 273 277 281 285 291 295 297 299 301 304 308 311 314 313 315 317 317 318 318 319 319 320 321 323 325 325 325 324 324 324 324
270 272 273 268 257 254 256 254 252 245 247 251 253 258 263 268 275 278 281 289 293 294 297 299 302 305 308 311 312 312 316 316 317 318 318 319 319 320 321 323 324 324 324 323 323 324 322
Height
10746 10742 10739 10735 10733 10730 10726 10722 10717 10711 10706 10699 10694 10690 10687 10684 10681 10677 10674 10671 10670 10669 10667 10664 10663 10662 10661 10660 10660 10659 10659 10658 10658 10657 10656 10655 10655 10654 10654 10654 10653 10650 10649 10650 10649 10649 10648
10742 10739 10735 10732 10729 10726 10721 10717 10712 10707 10701 10696 10690 10685 10682 10679 10676 10672 10668 10666 10664 10663 10661 10659 10659 10658 10656 10654 10654 10654 10654 10654 10652 10651 10650 10649 10648 10647 10646 10646 10644 10642 10640 10639 10640 10637 10635
10737 10735 10731 10728 10725 10721 10718 10712 10708 10703 10698 10693 10687 10681 10676 10673 10670 10667 10663 10660 10659 10658 10656 10655 10653 10652 10650 10649 10649 10649 10648 10647 10645 10645 10643 10641 10640 10638 10636 10636 10634 10632 10628 10627 10625 10621 10621
10732 10729 10726 10723 10719 10716 10713 10708 10703 10699 10695 10690 10684 10677 10671 10666 10664 10661 10658 10655 10653 10652 10651 10649 10649 10647 10645 10644 10642 10642 10641 10639 10637 10636 10635 10634 10632 10629 10626 10625 10623 10620 10618 10614 10612 10609 10607
10725 10724 10721 10718 10714 10710 10706 10703 10698 10693 10689 10684 10680 10673 10667 10661 10657 10656 10653 10650 10648 10647 10646 10644 10643 10641 10637 10638 10636 10634 10631 10630 10630 10628 10625 10622 10621 10619 10617 10613 10610 10606 10603 10600 10597 10593 10588
10718 10716 10714 10712 10707 10704 10701 10697 10693 10688 10683 10678 10674 10668 10662 10656 10651 10649 10648 10645 10642 10642 10640 10637 10636 10635 10631 10629 10627 10626 10625 10623 10620 10617 10615 10612 10610 10607 10604 10600 10596 10592 10588 10584 10578 10573 10569
10711 10709 10706 10704 10701 10697 10694 10690 10686 10682 10678 10673 10668 10663 10657 10651 10647 10643 10641 10640 10637 10635 10633 10631 10628 10625 10623 10620 10619 10616 10614 10612 10610 10608 10605 10602 10599 10595 10590 10586 10580 10577 10573 10567 10559 10552 10549
10703 10701 10699 10697 10694 10691 10687 10682 10678 10675 10672 10667 10662 10657 10652 10646 10642 10639 10636 10633 10630 10629 10625 10623 10620 10617 10614 10612 10610 10606 10605 10604 10600 10596 10593 10590 10587 10582 10577 10572 10566 10560 10555 10547 10539 10529 10522
10695 10694 10691 10689 10686 10682 10679 10674 10671 10666 10662 10660 10655 10650 10645 10641 10635 10632 10629 10626 10623 10621 10618 10615 10612 10608 10607 10605 10601 10598 10593 10588 10584 10581 10579 10576 10572 10567 10561 10556 10549 10541 10535 10527 10519 10510 10498
10685 10684 10683 10681 10678 10674 10670 10666 10662 10658 10654 10650 10647 10642 10637 10633 10629 10624 10621 10617 10614 10611 10609 10608 10605 10600 10596 10593 10590 10585 10582 10578 10574 10570 10565 10563 10557 10550 10544 10540 10533 10524 10515 10505 10495 10485 10474
10676 10673 10673 10671 10669 10666 10661 10656 10652 10649 10645 10640 10637 10633 10627 10623 10621 10616 10612 10608 10605 10602 10600 10598 10596 10592 10587 10584 10582 10577 10573 10569 10563 10559 10553 10549 10544 10537 10528 10522 10516 10506 10495 10484 10472 10458 10447
10666 10664 10662 10661 10658 10656 10651 10647 10643 10640 10635 10630 10626 10623 10618 10613 10610 10606 10602 10598 10595 10593 10590 10586 10585 10582 10577 10573 10570 10566 10560 10555 10550 10545 10539 10533 10527 10520 10509 10500 10493 10484 10472 10460 10446 10431 10416
10655 10653 10652 10650 10648 10645 10641 10637 10633 10630 10626 10620 10616 10613 10608 10603 10598 10595 10592 10588 10585 10581 10580 10577 10573 10570 10566 10560 10556 10552 10547 10541 10534 10528 10523 10516 10509 10500 10490 10476 10465 10454 10443 10429 10417 10400 10384
10643 10641 10639 10638 10636 10633 10630 10626 10623 10619 10615 10611 10606 10603 10598 10593 10589 10584 10581 10578 10575 10572 10569 10565 10562 10558 10553 10549 10545 10538 10532 10525 10518 10510 10500 10493 10486 10477 10469 10457 10443 10431 10418 10402 10384 10371 10360
10631 10629 10627 10626 10624 10620 10618 10615 10611 10607 10603 10600 10596 10591 10587 10583 10579 10574 10570 10567 10564 10560 10556 10552 10548 10545 10540 10535 10531 10526 10519 10511 10504 10495 10485 10474 10467 10457 10445 10432 10418 10403 10388 10370 10352 10339 10320
10618 10616 10615 10614 10612 10608 10605 10603 10600 10595 10591 10588 10585 10580 10575 10572 10567 10563 10560 10556 10552 10549 10545 10540 10535 10531 10527 10521 10516 10509 10503 10496 10487 10478 10468 10456 10444 10434 10423 10408 10394 10377 10359 10336 10315 10292 10278
10604 10602 10602 10601 10597 10595 10593 10591 10588 10585 10580 10576 10572 10568 10563 10560 10555 10552 10548 10544 10540 10536 10532 10527 10522 10516 10511 10506 10500 10494 10486 10479 10470 10460 10451 10439 10426 10412 10398 10383 10365 10349 10331 10311 10291 10262 10231
10589 10589 10588 10587 10584 10581 10579 10577 10575 10572 10568 10564 10559 10555 10550 10547 10543 10539 10536 10533 10528 10523 10518 10514 10509 10503 10497 10491 10485 10477 10467 10459 10451 10442 10431 10419 10405 10389 10374 10359 10341 10322 10302 10283 10261 10238 10202
10574 10575 10574 10572 10569 10567 10565 10564 10562 10558 10554 10551 10547 10543 10538 10534 10531 10527 10524 10520 10516 10511 10506 10501 10496 10489 10483 10475 10468 10460 10451 10441 10430 10419 10408 10397 10384 10370 10356 10338 10321 10301 10281 10257 10232 10207 10180
10559 10559 10558 10557 10556 10552 10551 10548 10548 10544 10539 10534 10532 10530 10524 10521 10518 10515 10511 10507 10502 10498 10493 10487 10482 10475 10468 10461 10453 10444 10434 10423 10411 10398 10386 10374 10360 10346 10330 10313 10295 10275 10254 10231 10206 10183 10161
10541 10542 10542 10541 10539 10539 10538 10536 10530 10527 10524 10519 10518 10513 10509 10508 10505 10502 10497 10494 10488 10484 10479 10473 10468 10461 10453 10445 10437 10426 10416 10404 10391 10377 10364 10352 10338 10324 10307 10291 10272 10250 10231 10209 10182 10156 10134
10522 10524 10525 10524 10523 10522 10521 10521 10516 10510 10508 10504 10501 10497 10496 10495 10493 10488 10484 10479 10475 10471 10466 10459 10453 10445 10438 10429 10420 10408 10397 10385 10372 10357 10343 10329 10316 10302 10285 10269 10251 10228 10205 10182 10157 10131 10112
10503 10506 10507 10506 10506 10506 10506 10506 10502 10499 10495 10492 10485 10483 10482 10483 10478 10474 10470 10465 10462 10457 10452 10444 10437 10429 10422 10413 10402 10391 10379 10366 10352 10336 10321 10307 10293 10279 10265 10245 10228 10206 10181 10158 10135 10113 10094
10484 10486 10489 10488 10487 10488 10488 10487 10484 10484 10478 10474 10469 10467 10468 10468 10463 10459 10455 10451 10447 10443 10436 10428 10421 10413 10404 10394 10382 10371 10358 10346 10331 10317 10299 10284 10269 10254 10241 10220 10207 10181 10157 10138 10115 10093 10077
10464 10466 10468 10470 10469 10469 10469 10469 10464 10462 10463 10460 10454 10454 10454 10452 10449 10445 10441 10438 10433 10428 10421 10413 10404 10396 10386 10375 10363 10351 10338 10326 10312 10297 10277 10261 10246 10230 10213 10200 10181 10154 10135 10114 10096 10073 10059
10440 10444 10446 10448 10447 10446 10447 10447 10446 10442 10439 10438 10436 10438 10438 10437 10434 10431 10427 10423 10419 10413 10406 10396 10388 10378 10367 10355 10343 10331 10318 10306 10293 10278 10256 10239 10223 10209 10188 10173 10154 10134 10116 10092 10075 10059 10039
10420 10420 10422 10424 10424 10424 10424 10422 10421 10423 10422 10422 10423 10423 10423 10422 10420 10416 10413 10409 10404 10397 10390 10381 10371 10361 10347 10337 10325 10313 10301 10284 10270 10256 10237 10218 10202 10183 10162 10146 10132 10106 10089 10068 10054 10040 10022
10394 10398 10399 10398 10398 10399 10401 10400 10400 10404 10406 10408 10408 10409 10410 10408 10406 10402 10400 10394 10388 10382 10374 10363 10354 10341 10331 10318 10306 10293 10282 10265 10250 10235 10214 10196 10175 10161 10141 10123 10106 10089 10066 10046 10033 10018 9999
10369 10371 10376 10376 10375 10377 10380 10383 10385 10388 10392 10395 10396 10396 10395 10393 10391 10389 10385 10379 10372 10364 10356 10345 10336 10324 10311 10299 10286 10273 10259 10244 10228 10214 10192 10173 10152 10138 10117 10100 10080 10063 10045 10025 10010 9997 9980